[[{"header":{"parameterUnit":"m.s-1","parameterCategory":1,"la1":30.2991,"la2":30.254,"lo1":-89.0895,"lo2":-89.0444,"dy":0.0017,"dx":0.0017,"nx":28,"ny":28,"refTime":"2025-03-16T03:00:00:Z","depth":0,"parameterNumber":2,"parameterNumberName":"U-component_of_WINDS"},"data":[0,0,0,0,0,0,0,0,0,0,0,0,0,0,0,0,0,0,0,0,0,0,0,0,0,0,0,0,0,0,0,0,0,0,0,0,0,0,0,0,0,0,0,0,0,0,0,0,0,0,0,0,0,0,0,0,0,0,4.4667,4.4669,0,4.4865,4.4867,4.4869,4.4837,4.4833,4.483,4.4827,4.5036,4.5044,4.5053,0,0,0,0,0,0,0,0,0,0,0,0,0,4.427,4.4278,4.4667,4.467,4.4672,4.4864,4.4867,4.487,4.4837,4.4833,4.4829,4.4825,4.5033,4.5043,4.5054,0,0,0,0,0,0,0,0,0,0,0,0,0,4.4453,4.428,4.4667,4.4679,4.4682,4.4864,4.4867,4.487,4.4838,4.4833,4.4828,4.4823,4.5029,4.5042,4.5055,4.5239,0,0,4.5095,4.5101,0,0,0,0,0,0,0,0,4.4443,4.4467,4.4675,4.4678,4.4682,4.4821,4.4804,4.4994,4.484,4.4779,4.4827,4.4821,4.4969,4.4987,4.5035,4.5249,4.5258,4.5097,4.5105,4.511,4.5114,0,0,0,0,0,0,0,4.443,4.4459,4.4745,4.4678,4.4682,4.4677,4.4698,4.484,4.4901,4.4784,4.4782,4.4806,4.497,4.5023,4.504,4.5261,4.5096,4.5108,4.5116,4.5121,4.564,4.5646,0,0,0,0,0,0,4.4413,4.4448,4.4739,4.4751,4.4547,4.4689,4.4711,4.4782,4.4899,4.4912,4.481,4.4803,4.5003,4.5025,4.5047,4.5273,4.511,4.5122,4.513,4.5634,4.5641,4.5648,0,0,0,0,0,0,4.4404,4.4439,4.4731,4.46,4.4636,4.4701,4.478,4.4788,4.4841,4.4918,4.493,4.4852,4.4999,4.5029,4.5192,4.528,4.5128,4.514,4.5627,4.5637,4.5645,4.5725,0,0,0,0,0,0,4.4393,4.4436,4.4505,4.4601,4.4643,4.4871,4.4785,4.4796,4.4863,4.4856,4.4961,4.4973,4.4998,4.5173,4.5205,4.5295,4.5151,4.562,4.5631,4.5642,4.5715,4.5735,4.5753,0,0,0,0,0,4.4379,4.452,4.4508,4.4543,4.473,4.4876,4.49,4.4923,4.487,4.4941,4.4991,4.497,4.5264,4.519,4.5226,4.5321,4.5614,4.5628,4.5641,4.5706,4.5731,4.5752,0,0,0,0,0,0,4.4434,4.4533,4.4521,4.4697,4.4778,4.487,4.496,4.4949,4.5048,4.5038,4.5065,4.5089,4.5256,4.5304,4.5219,4.5508,4.5432,4.5454,4.5469,4.5494,4.5513,4.5498,4.5161,0,0,0,0,0,4.4466,4.4573,4.4655,4.4803,4.4844,4.4895,4.4959,4.497,4.5056,4.5091,4.5153,4.524,4.5352,4.5425,4.5533,4.5721,4.5745,4.5805,4.5824,4.5839,4.5858,4.5965,4.5993,4.5691,4.5691,4.5691,0,0,4.4534,4.4602,4.4668,4.4816,4.488,4.4994,4.4924,4.5047,4.5133,4.511,4.5269,4.5318,4.5416,4.5594,4.5675,4.564,4.5946,4.5856,4.5868,4.5878,4.5981,4.601,4.6035,4.57,4.5699,4.5697,0,0,4.4717,4.4778,4.4909,4.4974,4.5072,4.5105,4.5137,4.5231,4.5263,4.5421,4.5408,4.5511,4.5703,4.5775,4.5836,4.6049,4.6035,4.6083,4.6184,4.6288,4.6312,4.6333,4.6412,4.6439,4.6101,4.6102,4.6102,0,4.4791,4.4959,4.4978,4.5103,4.517,4.5153,4.5288,4.5351,4.548,4.5528,4.5486,4.5728,4.5793,4.5988,4.604,4.609,4.613,4.6072,4.6306,4.6328,4.6348,4.6424,4.6453,4.6107,4.6106,4.6106,4.6105,0,4.5046,4.5163,4.5258,4.5381,4.5458,4.5588,4.5629,4.5706,4.571,4.5749,4.5913,4.599,4.6115,4.6161,4.6167,4.636,4.6335,4.6299,4.6225,4.6382,4.6454,4.6482,4.6115,4.6113,4.6111,4.611,0,0,4.5269,4.5402,4.5437,4.5494,4.5601,4.5693,4.5823,4.5943,4.6009,4.6099,4.6211,4.6375,4.6343,4.6413,4.6427,4.6518,4.6686,4.6472,4.6475,4.6512,4.6906,4.6933,4.6966,4.6676,4.6681,4.6686,4.6898,0,4.5465,4.5692,4.5714,4.5918,4.6029,4.6016,4.613,4.621,4.625,4.6352,4.6397,4.6514,4.6462,4.6504,4.6593,4.6646,4.6766,4.6631,4.6784,4.6789,4.6761,4.7003,4.7032,4.7229,4.6926,4.6931,4.6934,0,4.5722,4.5819,4.6034,4.6128,4.6176,4.6277,4.639,4.6486,4.6578,4.6601,4.668,4.6683,4.6821,4.6739,4.6931,4.6839,4.6903,4.6939,4.6947,4.6964,4.6873,4.7029,4.7292,4.7323,4.6978,4.6975,4.6971,0,4.5867,4.6051,4.6204,4.6253,4.6366,4.6438,4.6489,4.6575,4.6646,4.6746,4.6793,4.6908,4.6972,4.7062,4.7097,4.7034,4.7289,4.7209,4.7315,4.7314,4.737,4.7367,4.765,4.7408,4.7407,4.7407,4.7406,0,4.6084,4.6217,4.6271,4.6365,4.6515,4.6541,4.6689,4.6737,4.6814,4.6921,4.6916,4.7016,4.7055,4.7163,4.7191,4.7348,4.7376,4.7401,4.7408,4.7403,4.74,4.7447,4.7435,4.7415,4.7413,4.7411,4.741,0,4.6272,4.6312,4.6479,4.6572,4.6599,4.6706,4.6787,4.688,4.6919,4.7054,4.7087,4.7149,4.7276,4.7319,4.7473,4.7492,4.7675,4.7669,4.7644,4.7646,4.775,4.774,4.8074,4.8121,4.7846,4.7849,4.7851,0,4.6408,4.651,4.6615,4.6684,4.6738,4.685,4.6923,4.6953,4.7029,4.7143,4.7223,4.7348,4.745,4.7654,4.7715,4.7833,4.7831,4.794,4.7849,4.7842,4.7836,4.7831,4.7843,4.7958,4.7961,4.7963,4.7965,0,4.6648,4.6663,4.6767,4.6879,4.6966,4.7056,4.7143,4.7201,4.7245,4.7331,4.746,4.7539,4.7696,4.7822,4.7943,4.7998,4.7991,4.7993,4.8024,4.8021,4.8004,4.8018,4.7693,4.7985,4.7983,4.7982,4.7981,4.798,4.6816,4.6907,4.6995,4.7112,4.7181,4.7263,4.7356,4.7406,4.7513,4.7642,4.7654,4.7793,4.7886,4.8047,4.8109,4.8221,4.8191,4.8235,4.8247,4.8258,4.8267,4.7984,4.8243,4.8242,4.8242,4.8241,4.8241,0,4.7058,4.7114,4.7221,4.7343,4.7436,4.7417,4.7514,4.7594,4.7716,4.7801,4.7901,4.8051,4.8173,4.8244,4.8367,4.8444,4.8444,4.8475,4.8471,4.8485,4.8286,4.8247,4.8474,4.8474,4.8474,4.8473,4.8473,4.8473,4.7195,4.7349,4.7375,4.7565,4.762,4.7756,4.7813,4.789,4.7958,4.8125,4.8226,4.827,4.8351,4.8481,4.8594,4.8612,4.8659,4.8694,4.871,4.8522,4.8499,4.8476,4.844,4.8703,4.8704,4.89,4.8902,4.8903]},{"header":{"parameterUnit":"m.s-1","parameterCategory":1,"la1":30.2991,"la2":30.254,"lo1":-89.0895,"lo2":-89.0444,"dy":0.0017,"dx":0.0017,"nx":28,"ny":28,"refTime":"2025-03-16T03:00:00:Z","depth":0,"parameterNumber":3,"parameterNumberName":"V-component_of_WINDS"},"data":[0,0,0,0,0,0,0,0,0,0,0,0,0,0,0,0,0,0,0,0,0,0,0,0,0,0,0,0,0,0,0,0,0,0,0,0,0,0,0,0,0,0,0,0,0,0,0,0,0,0,0,0,0,0,0,0,0,0,0.3925,0.3925,0,0.3919,0.3919,0.3919,0.3908,0.3908,0.3908,0.3908,0.3901,0.3901,0.3901,0,0,0,0,0,0,0,0,0,0,0,0,0,0.3928,0.3928,0.3925,0.3925,0.3925,0.3919,0.3919,0.3919,0.3908,0.3908,0.3908,0.3908,0.3901,0.3901,0.3901,0,0,0,0,0,0,0,0,0,0,0,0,0,0.3925,0.3928,0.3925,0.3919,0.3919,0.3919,0.3919,0.3919,0.3908,0.3908,0.3908,0.3908,0.3901,0.3901,0.3901,0.3906,0,0,0.3901,0.3901,0,0,0,0,0,0,0,0,0.3925,0.3925,0.392,0.392,0.3919,0.3914,0.3917,0.3914,0.3908,0.3912,0.3908,0.3907,0.3905,0.3905,0.3904,0.3906,0.3906,0.3901,0.3901,0.3901,0.3901,0,0,0,0,0,0,0,0.3925,0.3925,0.3923,0.392,0.3919,0.3917,0.3916,0.3917,0.391,0.3912,0.3911,0.3911,0.3905,0.3904,0.3904,0.3905,0.3901,0.3901,0.3901,0.3901,0.391,0.3911,0,0,0,0,0,0,0.3927,0.3925,0.3923,0.3923,0.3921,0.3917,0.3916,0.3916,0.391,0.3909,0.3911,0.391,0.3905,0.3904,0.3904,0.391,0.3901,0.3901,0.3901,0.391,0.391,0.3911,0,0,0,0,0,0,0.3927,0.3926,0.3923,0.3924,0.3923,0.3917,0.3917,0.3916,0.3915,0.391,0.3908,0.3911,0.3904,0.3904,0.3906,0.3909,0.3901,0.3901,0.391,0.391,0.3911,0.3921,0,0,0,0,0,0,0.3927,0.3927,0.3929,0.3924,0.3923,0.3925,0.3917,0.3916,0.3915,0.3914,0.391,0.3909,0.3904,0.3906,0.3906,0.3909,0.3901,0.3909,0.391,0.3911,0.3921,0.3922,0.3923,0,0,0,0,0,0.3927,0.3932,0.3929,0.3929,0.3926,0.3926,0.3925,0.392,0.3916,0.3918,0.3914,0.3909,0.3909,0.3906,0.3906,0.3909,0.3909,0.391,0.391,0.392,0.3922,0.3923,0,0,0,0,0,0,0.3938,0.3931,0.3928,0.3932,0.3929,0.3924,0.3926,0.3922,0.392,0.392,0.3913,0.3912,0.3914,0.3912,0.3909,0.3914,0.3908,0.3909,0.3915,0.3917,0.3918,0.3919,0.3901,0,0,0,0,0,0.394,0.3941,0.3935,0.3939,0.3938,0.3932,0.3932,0.3928,0.3925,0.3924,0.3921,0.3918,0.3917,0.3917,0.3916,0.392,0.3919,0.3922,0.3924,0.3925,0.3925,0.3927,0.3928,0.3913,0.3913,0.3913,0,0,0.3946,0.3943,0.3944,0.3941,0.3939,0.3939,0.3932,0.3933,0.3933,0.3924,0.3926,0.3923,0.3919,0.3922,0.3923,0.392,0.3929,0.3926,0.3926,0.3926,0.3928,0.3929,0.393,0.3913,0.3913,0.3913,0,0,0.3957,0.3955,0.3957,0.3955,0.3952,0.3948,0.3948,0.3944,0.3941,0.3943,0.3936,0.3936,0.3935,0.3933,0.3932,0.3941,0.3936,0.3941,0.3948,0.3949,0.3951,0.3952,0.3955,0.3956,0.3941,0.3941,0.3942,0,0.3965,0.3965,0.3959,0.3961,0.396,0.3952,0.3954,0.3952,0.3949,0.3948,0.3945,0.3943,0.394,0.3942,0.3945,0.3944,0.3944,0.3942,0.3951,0.3952,0.3953,0.3956,0.3957,0.3942,0.3942,0.3942,0.3942,0,0.3975,0.3975,0.3978,0.3975,0.3974,0.3976,0.397,0.397,0.3965,0.3962,0.3963,0.3959,0.3957,0.3957,0.3953,0.3958,0.3957,0.3952,0.3946,0.3955,0.3958,0.3959,0.3943,0.3943,0.3943,0.3942,0,0,0.3993,0.3986,0.3987,0.3985,0.398,0.398,0.3982,0.398,0.398,0.3977,0.3978,0.3977,0.3973,0.3971,0.3967,0.3968,0.3976,0.3964,0.3963,0.3966,0.3981,0.3984,0.3986,0.3972,0.3972,0.3973,0.3981,0,0.4002,0.4005,0.3999,0.4002,0.4003,0.3995,0.3996,0.3993,0.399,0.3989,0.3985,0.3984,0.3979,0.3978,0.3979,0.3975,0.3978,0.3974,0.3973,0.3973,0.3974,0.3987,0.3991,0.3999,0.3982,0.3982,0.3982,0,0.4014,0.4013,0.4016,0.4011,0.4011,0.4012,0.4009,0.4009,0.4005,0.4002,0.4001,0.3995,0.3996,0.399,0.3991,0.3988,0.3987,0.3984,0.3985,0.3984,0.3978,0.3987,0.4001,0.4002,0.3984,0.3984,0.3984,0,0.4027,0.4025,0.4027,0.4026,0.402,0.4021,0.4018,0.4014,0.4013,0.4011,0.401,0.4008,0.4007,0.4005,0.3999,0.3995,0.4,0.3994,0.3998,0.3998,0.3999,0.3999,0.4013,0.3999,0.3998,0.3998,0.3998,0,0.4039,0.4041,0.4033,0.4034,0.4036,0.4029,0.4031,0.4028,0.4025,0.4025,0.4018,0.4018,0.401,0.4009,0.4005,0.4006,0.4005,0.4003,0.4001,0.4003,0.4004,0.4003,0.4002,0.3999,0.3999,0.3999,0.3999,0,0.4053,0.4048,0.4049,0.4043,0.4041,0.4043,0.4038,0.4039,0.4035,0.4035,0.4034,0.4028,0.4026,0.402,0.4017,0.4014,0.4017,0.4014,0.4018,0.4017,0.4021,0.4021,0.4035,0.4037,0.4021,0.4021,0.4021,0,0.4061,0.4063,0.4057,0.4056,0.4054,0.4054,0.4052,0.4046,0.4045,0.404,0.4041,0.4039,0.4038,0.4036,0.403,0.4028,0.4025,0.4031,0.4025,0.4027,0.4025,0.4025,0.4025,0.4032,0.4032,0.4032,0.4032,0,0.4075,0.4072,0.4071,0.4069,0.4068,0.4066,0.4063,0.4063,0.4055,0.4055,0.4053,0.4052,0.4049,0.4047,0.4043,0.404,0.4035,0.4034,0.4035,0.4037,0.4039,0.4038,0.4021,0.4034,0.4034,0.4034,0.4034,0.4034,0.4087,0.4088,0.4084,0.4082,0.408,0.4077,0.4077,0.4073,0.4072,0.4069,0.4065,0.4064,0.4059,0.4054,0.4052,0.4051,0.4048,0.4049,0.4049,0.4049,0.405,0.4039,0.405,0.405,0.405,0.405,0.405,0,0.4101,0.4097,0.4096,0.4093,0.4092,0.4087,0.4084,0.4083,0.4082,0.4079,0.4077,0.4075,0.4073,0.4067,0.4064,0.4065,0.4062,0.4064,0.4064,0.4063,0.4053,0.4053,0.4066,0.4066,0.4066,0.4066,0.4066,0.4066,0.4108,0.4109,0.4105,0.4105,0.4102,0.4101,0.4099,0.4097,0.4094,0.4092,0.4091,0.4087,0.4082,0.4079,0.4077,0.4075,0.4075,0.4077,0.4075,0.4066,0.4064,0.4063,0.4062,0.4077,0.4077,0.4085,0.4085,0.4085]}]]